Time,TemperatureF,DewpointF,PressureIn,WindDirection,WindDirectionDegrees,WindSpeedMPH,WindSpeedGustMPH,Humidity,HourlyPrecipIn,Conditions,Clouds,dailyrainin,SoftwareType,DateUTC
2013-02-11 00:00:00,34.0,15.9,30.17,SSW,197,2.0,8.0,47,0.00,,,0.03,Wunderground v.1.15,2013-02-11 05:00:00,
2013-02-11 00:05:00,34.0,15.9,30.17,West,266,1.0,8.0,47,0.00,,,0.00,Wunderground v.1.15,2013-02-11 05:05:00,
2013-02-11 00:10:00,33.9,15.8,30.17,SSW,211,1.0,8.0,47,0.00,,,0.00,Wunderground v.1.15,2013-02-11 05:10:00,
2013-02-11 00:15:00,33.9,15.8,30.17,SW,219,2.0,8.0,47,0.00,,,0.00,Wunderground v.1.15,2013-02-11 05:15:00,
2013-02-11 00:20:00,33.9,16.3,30.17,SW,215,1.0,1.0,48,0.00,,,0.00,Wunderground v.1.15,2013-02-11 05:20:00,
2013-02-11 00:25:00,33.8,16.2,30.17,SW,232,1.0,8.0,48,0.00,,,0.00,Wunderground v.1.15,2013-02-11 05:25:00,
2013-02-11 00:30:00,33.7,16.1,30.16,SW,221,2.0,8.0,48,0.00,,,0.00,Wunderground v.1.15,2013-02-11 05:30:00,
2013-02-11 00:35:00,33.8,16.2,30.16,SSW,205,2.0,8.0,48,0.00,,,0.00,Wunderground v.1.15,2013-02-11 05:35:00,
2013-02-11 00:40:00,33.8,16.2,30.16,SW,222,2.0,8.0,48,0.00,,,0.00,Wunderground v.1.15,2013-02-11 05:40:00,
2013-02-11 00:45:00,33.9,16.3,30.16,SW,222,2.0,8.0,48,0.00,,,0.00,Wunderground v.1.15,2013-02-11 05:45:00,
2013-02-11 00:50:00,33.9,16.3,30.15,SW,233,2.0,10.0,48,0.00,,,0.00,Wunderground v.1.15,2013-02-11 05:50:00,
2013-02-11 00:55:00,34.0,16.3,30.16,SW,221,4.0,10.0,48,0.00,,,0.00,Wunderground v.1.15,2013-02-11 05:55:00,
2013-02-11 01:00:00,34.0,16.3,30.16,SSW,201,6.0,6.0,48,0.00,,,0.00,Wunderground v.1.15,2013-02-11 06:00:00,
2013-02-11 01:05:00,33.9,16.7,30.15,SW,232,6.0,7.0,49,0.00,,,0.00,Wunderground v.1.15,2013-02-11 06:05:00,
2013-02-11 01:10:00,33.9,17.2,30.15,SW,231,6.0,6.0,50,0.00,,,0.00,Wunderground v.1.15,2013-02-11 06:10:00,
2013-02-11 01:15:00,33.9,17.2,30.15,SSW,210,6.0,8.0,50,0.00,,,0.00,Wunderground v.1.15,2013-02-11 06:15:00,
2013-02-11 01:20:00,34.0,17.3,30.15,SSW,204,6.0,8.0,50,0.00,,,0.00,Wunderground v.1.15,2013-02-11 06:20:00,
2013-02-11 01:25:00,34.0,17.3,30.15,SSE,150,5.0,8.0,50,0.00,,,0.00,Wunderground v.1.15,2013-02-11 06:25:00,
2013-02-11 01:30:00,34.1,17.4,30.15,SSE,160,6.0,8.0,50,0.00,,,0.00,Wunderground v.1.15,2013-02-11 06:30:00,
2013-02-11 01:35:00,34.2,17.5,30.14,WSW,245,5.0,8.0,50,0.00,,,0.00,Wunderground v.1.15,2013-02-11 06:35:00,
2013-02-11 01:40:00,34.3,17.6,30.13,South,190,4.0,8.0,50,0.00,,,0.00,Wunderground v.1.15,2013-02-11 06:40:00,
2013-02-11 01:45:00,34.5,17.3,30.13,ESE,103,6.0,8.0,49,0.00,,,0.00,Wunderground v.1.15,2013-02-11 06:45:00,
2013-02-11 01:50:00,34.8,17.6,30.13,SSW,201,8.0,16.0,49,0.00,,,0.00,Wunderground v.1.15,2013-02-11 06:50:00,
2013-02-11 01:55:00,34.8,17.6,30.14,SW,214,7.0,16.0,49,0.00,,,0.00,Wunderground v.1.15,2013-02-11 06:55:00,
2013-02-11 02:00:00,34.9,17.7,30.13,South,190,6.0,8.0,49,0.00,,,0.00,Wunderground v.1.15,2013-02-11 07:00:00,
2013-02-11 02:05:00,35.0,17.7,30.12,WSW,250,8.0,8.0,49,0.00,,,0.00,Wunderground v.1.15,2013-02-11 07:05:00,
2013-02-11 02:10:00,35.1,18.3,30.12,SSE,162,7.0,8.0,50,0.00,,,0.00,Wunderground v.1.15,2013-02-11 07:10:00,
2013-02-11 02:15:00,35.1,18.3,30.12,SSW,200,6.0,8.0,50,0.00,,,0.00,Wunderground v.1.15,2013-02-11 07:15:00,
2013-02-11 02:25:00,35.2,18.4,30.11,SSE,155,5.0,16.0,50,0.00,,,0.00,Wunderground v.1.15,2013-02-11 07:25:00,
2013-02-11 02:30:00,35.2,18.4,30.10,WSW,243,6.0,8.0,50,0.00,,,0.00,Wunderground v.1.15,2013-02-11 07:30:00,
2013-02-11 02:35:00,35.2,18.4,30.09,SSW,201,5.0,9.0,50,0.00,,,0.00,Wunderground v.1.15,2013-02-11 07:35:00,
2013-02-11 02:40:00,35.3,18.0,30.09,SSW,205,6.0,8.0,49,0.00,,,0.00,Wunderground v.1.15,2013-02-11 07:40:00,
2013-02-11 02:45:00,35.4,18.6,30.08,West,259,6.0,8.0,50,0.00,,,0.00,Wunderground v.1.15,2013-02-11 07:45:00,
2013-02-11 02:50:00,35.4,18.6,30.08,SSW,202,6.0,10.0,50,0.00,,,0.00,Wunderground v.1.15,2013-02-11 07:50:00,
2013-02-11 03:00:00,35.5,19.1,30.08,SW,233,6.0,6.0,51,0.00,,,0.00,Wunderground v.1.15,2013-02-11 08:00:00,
2013-02-11 03:05:00,35.5,19.1,30.08,WSW,255,5.0,8.0,51,0.00,,,0.00,Wunderground v.1.15,2013-02-11 08:05:00,
2013-02-11 03:10:00,35.6,19.7,30.07,SW,233,5.0,8.0,52,0.00,,,0.00,Wunderground v.1.15,2013-02-11 08:10:00,
2013-02-11 03:15:00,35.6,19.7,30.06,SSW,204,5.0,8.0,52,0.00,,,0.00,Wunderground v.1.15,2013-02-11 08:15:00,
2013-02-11 03:20:00,35.7,20.2,30.06,SSE,152,6.0,6.0,53,0.00,,,0.00,Wunderground v.1.15,2013-02-11 08:20:00,
2013-02-11 03:25:00,35.8,20.3,30.05,SW,229,7.0,7.0,53,0.00,,,0.00,Wunderground v.1.15,2013-02-11 08:25:00,
2013-02-11 03:30:00,35.9,20.9,30.05,SW,228,7.0,16.0,54,0.00,,,0.00,Wunderground v.1.15,2013-02-11 08:30:00,
2013-02-11 03:35:00,35.9,21.3,30.04,South,187,7.0,16.0,55,0.00,,,0.00,Wunderground v.1.15,2013-02-11 08:35:00,
2013-02-11 03:40:00,36.0,21.4,30.04,SSW,210,7.0,7.0,55,0.00,,,0.00,Wunderground v.1.15,2013-02-11 08:40:00,
2013-02-11 03:45:00,36.1,21.9,30.04,West,260,7.0,8.0,56,0.00,,,0.00,Wunderground v.1.15,2013-02-11 08:45:00,
2013-02-11 03:50:00,36.1,21.9,30.03,SSE,161,7.0,7.0,56,0.00,,,0.00,Wunderground v.1.15,2013-02-11 08:50:00,
2013-02-11 03:55:00,36.1,22.3,30.04,SSW,200,8.0,14.0,57,0.00,,,0.00,Wunderground v.1.15,2013-02-11 08:55:00,
2013-02-11 04:00:00,36.1,22.3,30.03,SW,225,8.0,11.0,57,0.00,,,0.00,Wunderground v.1.15,2013-02-11 09:00:00,
2013-02-11 04:05:00,36.1,22.7,30.03,SSW,207,7.0,11.0,58,0.00,,,0.00,Wunderground v.1.15,2013-02-11 09:05:00,
2013-02-11 04:10:00,36.2,22.8,30.03,SSW,205,7.0,17.0,58,0.00,,,0.00,Wunderground v.1.15,2013-02-11 09:10:00,
2013-02-11 04:15:00,36.2,23.2,30.03,West,263,9.0,17.0,59,0.00,,,0.00,Wunderground v.1.15,2013-02-11 09:15:00,
2013-02-11 04:20:00,36.0,23.8,30.03,South,174,8.0,10.0,61,0.00,,,0.00,Wunderground v.1.15,2013-02-11 09:20:00,
2013-02-11 04:25:00,35.8,24.4,30.02,SSE,152,7.0,13.0,63,0.00,,,0.00,Wunderground v.1.15,2013-02-11 09:25:00,
2013-02-11 04:30:00,35.7,24.3,30.01,SSW,197,8.0,8.0,63,0.00,,,0.00,Wunderground v.1.15,2013-02-11 09:30:00,
2013-02-11 04:35:00,35.6,24.2,30.01,SSW,196,8.0,8.0,63,0.00,,,0.00,Wunderground v.1.15,2013-02-11 09:35:00,
2013-02-11 04:40:00,35.5,24.1,30.00,SSW,197,7.0,7.0,63,0.00,,,0.00,Wunderground v.1.15,2013-02-11 09:40:00,
2013-02-11 04:45:00,35.7,24.3,30.00,SW,218,6.0,8.0,63,0.00,,,0.00,Wunderground v.1.15,2013-02-11 09:45:00,
2013-02-11 04:50:00,35.6,24.2,30.00,SW,229,6.0,9.0,63,0.00,,,0.00,Wunderground v.1.15,2013-02-11 09:50:00,
2013-02-11 04:55:00,35.6,24.2,30.00,SSE,147,5.0,9.0,63,0.00,,,0.00,Wunderground v.1.15,2013-02-11 09:55:00,
2013-02-11 05:00:00,35.6,24.2,29.99,SW,236,4.0,4.0,63,0.00,,,0.00,Wunderground v.1.15,2013-02-11 10:00:00,
2013-02-11 05:05:00,35.6,24.2,29.99,SW,221,5.0,8.0,63,0.00,,,0.00,Wunderground v.1.15,2013-02-11 10:05:00,
2013-02-11 05:10:00,35.5,24.5,29.98,South,174,5.0,5.0,64,0.00,,,0.00,Wunderground v.1.15,2013-02-11 10:10:00,
2013-02-11 05:15:00,35.5,24.5,29.98,SSW,200,4.0,8.0,64,0.00,,,0.00,Wunderground v.1.15,2013-02-11 10:15:00,
2013-02-11 05:20:00,35.4,24.8,29.96,SSW,201,4.0,4.0,65,0.00,,,0.00,Wunderground v.1.15,2013-02-11 10:20:00,
2013-02-11 05:25:00,35.4,25.2,29.96,SW,225,5.0,5.0,66,0.00,,,0.00,Wunderground v.1.15,2013-02-11 10:25:00,
2013-02-11 05:30:00,35.2,25.3,29.96,SW,218,6.0,8.0,67,0.00,,,0.00,Wunderground v.1.15,2013-02-11 10:30:00,
2013-02-11 05:35:00,35.2,25.7,29.97,SSW,193,7.0,8.0,68,0.00,,,0.00,Wunderground v.1.15,2013-02-11 10:35:00,
2013-02-11 05:40:00,35.2,25.3,29.96,WSW,240,7.0,7.0,67,0.00,,,0.00,Wunderground v.1.15,2013-02-11 10:40:00,
2013-02-11 05:45:00,35.2,25.3,29.96,South,184,7.0,8.0,67,0.00,,,0.00,Wunderground v.1.15,2013-02-11 10:45:00,
2013-02-11 05:50:00,35.2,25.3,29.96,SSE,152,6.0,6.0,67,0.00,,,0.00,Wunderground v.1.15,2013-02-11 10:50:00,
2013-02-11 05:55:00,35.1,25.9,29.95,SSW,207,5.0,8.0,69,0.00,,,0.00,Wunderground v.1.15,2013-02-11 10:55:00,
2013-02-11 06:00:00,35.1,26.3,29.94,SSW,194,6.0,10.0,70,0.00,,,0.00,Wunderground v.1.15,2013-02-11 11:00:00,
2013-02-11 06:05:00,35.1,26.3,29.94,West,277,7.0,10.0,70,0.00,,,0.00,Wunderground v.1.15,2013-02-11 11:05:00,
2013-02-11 06:10:00,35.2,26.0,29.95,South,178,7.0,12.0,69,0.00,,,0.00,Wunderground v.1.15,2013-02-11 11:10:00,
2013-02-11 06:15:00,35.4,25.9,29.95,South,184,7.0,12.0,68,0.00,,,0.00,Wunderground v.1.15,2013-02-11 11:15:00,
2013-02-11 06:20:00,35.7,25.8,29.95,SW,219,7.0,7.0,67,0.00,,,0.00,Wunderground v.1.15,2013-02-11 11:20:00,
2013-02-11 06:25:00,35.8,25.5,29.95,WSW,242,8.0,8.0,66,0.00,,,0.00,Wunderground v.1.15,2013-02-11 11:25:00,
2013-02-11 06:30:00,35.9,25.3,29.95,SW,229,7.0,7.0,65,0.00,,,0.00,Wunderground v.1.15,2013-02-11 11:30:00,
2013-02-11 06:35:00,36.0,25.7,29.94,SSW,212,7.0,8.0,66,0.00,,,0.00,Wunderground v.1.15,2013-02-11 11:35:00,
2013-02-11 06:40:00,35.9,26.4,29.94,SW,226,7.0,10.0,68,0.00,,,0.00,Wunderground v.1.15,2013-02-11 11:40:00,
2013-02-11 06:45:00,35.7,27.2,29.94,SSW,205,8.0,10.0,71,0.00,,,0.00,Wunderground v.1.15,2013-02-11 11:45:00,
2013-02-11 06:50:00,35.4,27.6,29.94,SSE,159,9.0,9.0,73,0.00,,,0.00,Wunderground v.1.15,2013-02-11 11:50:00,
2013-02-11 06:55:00,34.9,28.4,29.94,WSW,250,8.0,9.0,77,0.00,,,0.00,Wunderground v.1.15,2013-02-11 11:55:00,
2013-02-11 07:00:00,34.6,28.8,29.94,SSW,196,8.0,14.0,79,0.00,,,0.00,Wunderground v.1.15,2013-02-11 12:00:00,
2013-02-11 07:05:00,34.2,29.3,29.95,SSE,167,8.0,14.0,82,0.00,,,0.00,Wunderground v.1.15,2013-02-11 12:05:00,
2013-02-11 07:10:00,33.9,29.6,29.95,SSE,159,8.0,8.0,84,0.00,,,0.00,Wunderground v.1.15,2013-02-11 12:10:00,
2013-02-11 07:15:00,33.7,30.0,29.95,SW,228,7.0,8.0,86,0.00,,,0.00,Wunderground v.1.15,2013-02-11 12:15:00,
2013-02-11 07:20:00,33.5,30.0,29.94,SW,232,6.0,6.0,87,0.00,,,0.00,Wunderground v.1.15,2013-02-11 12:20:00,
2013-02-11 07:25:00,33.5,30.3,29.94,SW,222,6.0,8.0,88,0.00,,,0.00,Wunderground v.1.15,2013-02-11 12:25:00,
2013-02-11 07:30:00,33.6,30.4,29.94,SW,219,6.0,12.0,88,0.00,,,0.01,Wunderground v.1.15,2013-02-11 12:30:00,
2013-02-11 07:35:00,33.8,30.3,29.93,SW,221,7.0,12.0,87,0.00,,,0.01,Wunderground v.1.15,2013-02-11 12:35:00,
2013-02-11 07:40:00,34.0,30.5,29.94,WSW,238,7.0,7.0,87,0.05,,,0.02,Wunderground v.1.15,2013-02-11 12:40:00,
2013-02-11 07:45:00,34.1,30.6,29.93,East,90,6.0,8.0,87,0.05,,,0.02,Wunderground v.1.15,2013-02-11 12:45:00,
2013-02-11 07:50:00,34.3,30.8,29.93,WSW,239,6.0,9.0,87,0.05,,,0.02,Wunderground v.1.15,2013-02-11 12:50:00,
2013-02-11 07:55:00,34.4,30.9,29.93,SSE,156,6.0,9.0,87,0.04,,,0.02,Wunderground v.1.15,2013-02-11 12:55:00,
2013-02-11 08:00:00,34.7,30.9,29.93,SW,218,7.0,7.0,86,0.00,,,0.03,Wunderground v.1.15,2013-02-11 13:00:00,
2013-02-11 08:05:00,34.8,31.0,29.92,WSW,248,7.0,8.0,86,0.00,,,0.03,Wunderground v.1.15,2013-02-11 13:05:00,
2013-02-11 08:10:00,35.0,31.2,29.92,SSW,201,7.0,8.0,86,0.00,,,0.03,Wunderground v.1.15,2013-02-11 13:10:00,
2013-02-11 08:15:00,35.2,31.4,29.92,WSW,239,8.0,8.0,86,0.04,,,0.04,Wunderground v.1.15,2013-02-11 13:15:00,
2013-02-11 08:20:00,35.3,31.5,29.92,SSW,197,8.0,8.0,86,0.04,,,0.04,Wunderground v.1.15,2013-02-11 13:20:00,
2013-02-11 08:25:00,35.6,31.8,29.92,SSW,195,8.0,9.0,86,0.05,,,0.05,Wunderground v.1.15,2013-02-11 13:25:00,
2013-02-11 08:30:00,35.7,31.6,29.92,SW,233,8.0,8.0,85,0.05,,,0.05,Wunderground v.1.15,2013-02-11 13:30:00,
2013-02-11 08:35:00,35.8,31.7,29.92,South,176,7.0,10.0,85,0.06,,,0.06,Wunderground v.1.15,2013-02-11 13:35:00,
2013-02-11 08:40:00,36.0,31.9,29.92,West,279,7.0,8.0,85,0.06,,,0.06,Wunderground v.1.15,2013-02-11 13:40:00,
2013-02-11 08:45:00,36.1,32.0,29.92,SW,223,7.0,11.0,85,0.05,,,0.06,Wunderground v.1.15,2013-02-11 13:45:00,
2013-02-11 08:50:00,36.3,32.2,29.92,SW,228,7.0,8.0,85,0.04,,,0.07,Wunderground v.1.15,2013-02-11 13:50:00,
2013-02-11 08:55:00,36.5,32.4,29.92,SW,219,7.0,9.0,85,0.04,,,0.07,Wunderground v.1.15,2013-02-11 13:55:00,
2013-02-11 09:00:00,36.5,32.4,29.92,SW,223,7.0,7.0,85,0.06,,,0.08,Wunderground v.1.15,2013-02-11 14:00:00,
2013-02-11 09:05:00,36.6,32.5,29.91,SSW,207,6.0,8.0,85,0.06,,,0.08,Wunderground v.1.15,2013-02-11 14:05:00,
2013-02-11 09:15:00,36.9,32.8,29.90,SW,235,5.0,8.0,85,0.06,,,0.09,Wunderground v.1.15,2013-02-11 14:15:00,
2013-02-11 09:20:00,37.1,32.7,29.91,SW,226,6.0,6.0,84,0.05,,,0.10,Wunderground v.1.15,2013-02-11 14:20:00,
2013-02-11 09:25:00,37.3,32.9,29.91,WSW,248,6.0,8.0,84,0.05,,,0.10,Wunderground v.1.15,2013-02-11 14:25:00,
2013-02-11 09:30:00,37.4,33.0,29.90,SSW,210,6.0,8.0,84,0.05,,,0.10,Wunderground v.1.15,2013-02-11 14:30:00,
2013-02-11 09:35:00,37.6,33.2,29.90,SSE,163,6.0,8.0,84,0.05,,,0.11,Wunderground v.1.15,2013-02-11 14:35:00,
2013-02-11 09:40:00,37.8,33.4,29.89,SSW,212,6.0,8.0,84,0.05,,,0.11,Wunderground v.1.15,2013-02-11 14:40:00,
2013-02-11 09:45:00,38.0,33.3,29.89,WSW,256,6.0,8.0,83,0.05,,,0.12,Wunderground v.1.15,2013-02-11 14:45:00,
2013-02-11 09:50:00,38.1,33.4,29.88,WSW,239,7.0,7.0,83,0.05,,,0.12,Wunderground v.1.15,2013-02-11 14:50:00,
2013-02-11 09:55:00,38.3,33.6,29.88,WSW,250,7.0,8.0,83,0.05,,,0.12,Wunderground v.1.15,2013-02-11 14:55:00,
2013-02-11 10:00:00,38.4,33.7,29.88,SW,230,6.0,6.0,83,0.00,,,0.12,Wunderground v.1.15,2013-02-11 15:00:00,
2013-02-11 10:05:00,38.4,33.7,29.87,SSW,205,6.0,9.0,83,0.00,,,0.13,Wunderground v.1.15,2013-02-11 15:05:00,
2013-02-11 10:10:00,38.5,33.8,29.87,SW,216,6.0,15.0,83,0.00,,,0.13,Wunderground v.1.15,2013-02-11 15:10:00,
2013-02-11 10:15:00,38.5,33.8,29.87,SW,218,7.0,15.0,83,0.00,,,0.13,Wunderground v.1.15,2013-02-11 15:15:00,
2013-02-11 10:20:00,38.6,33.9,29.87,WNW,297,8.0,8.0,83,0.00,,,0.13,Wunderground v.1.15,2013-02-11 15:20:00,
2013-02-11 10:25:00,38.6,33.9,29.87,SW,221,7.0,8.0,83,0.00,,,0.13,Wunderground v.1.15,2013-02-11 15:25:00,
2013-02-11 10:30:00,38.6,33.9,29.87,SSW,194,6.0,8.0,83,0.00,,,0.13,Wunderground v.1.15,2013-02-11 15:30:00,
2013-02-11 10:35:00,38.6,33.9,29.86,WSW,242,7.0,8.0,83,0.00,,,0.13,Wunderground v.1.15,2013-02-11 15:35:00,
2013-02-11 10:40:00,38.6,33.9,29.87,SW,214,6.0,6.0,83,0.00,,,0.13,Wunderground v.1.15,2013-02-11 15:40:00,
2013-02-11 10:45:00,38.6,33.9,29.86,South,190,4.0,8.0,83,0.00,,,0.13,Wunderground v.1.15,2013-02-11 15:45:00,
2013-02-11 10:50:00,38.6,33.9,29.86,SSW,204,4.0,8.0,83,0.00,,,0.13,Wunderground v.1.15,2013-02-11 15:50:00,
2013-02-11 10:55:00,38.6,33.9,29.86,SSW,192,4.0,8.0,83,0.00,,,0.13,Wunderground v.1.15,2013-02-11 15:55:00,
2013-02-11 11:00:00,38.6,33.9,29.86,SSE,162,5.0,5.0,83,0.00,,,0.13,Wunderground v.1.15,2013-02-11 16:00:00,
2013-02-11 11:05:00,38.5,33.8,29.86,WSW,243,5.0,8.0,83,0.00,,,0.13,Wunderground v.1.15,2013-02-11 16:05:00,
2013-02-11 11:10:00,38.5,33.8,29.85,South,173,4.0,4.0,83,0.00,,,0.13,Wunderground v.1.15,2013-02-11 16:10:00,
2013-02-11 11:15:00,38.5,33.8,29.85,SW,219,3.0,8.0,83,0.00,,,0.13,Wunderground v.1.15,2013-02-11 16:15:00,
2013-02-11 11:20:00,38.6,33.9,29.86,SW,232,4.0,9.0,83,0.00,,,0.13,Wunderground v.1.15,2013-02-11 16:20:00,
2013-02-11 11:25:00,38.6,33.9,29.86,SSW,204,4.0,9.0,83,0.00,,,0.13,Wunderground v.1.15,2013-02-11 16:25:00,
2013-02-11 11:30:00,38.6,33.9,29.85,SW,215,4.0,11.0,83,0.00,,,0.13,Wunderground v.1.15,2013-02-11 16:30:00,
2013-02-11 11:35:00,38.6,33.9,29.85,SE,146,5.0,11.0,83,0.00,,,0.13,Wunderground v.1.15,2013-02-11 16:35:00,
2013-02-11 11:40:00,38.7,34.3,29.84,SSW,201,5.0,5.0,84,0.00,,,0.13,Wunderground v.1.15,2013-02-11 16:40:00,
2013-02-11 11:45:00,38.7,34.3,29.84,SE,130,5.0,8.0,84,0.00,,,0.13,Wunderground v.1.15,2013-02-11 16:45:00,
2013-02-11 11:55:00,38.9,34.2,29.82,SSW,203,4.0,8.0,83,0.00,,,0.13,Wunderground v.1.15,2013-02-11 16:55:00,
2013-02-11 12:00:00,39.0,34.3,29.81,SE,138,5.0,5.0,83,0.00,,,0.13,Wunderground v.1.15,2013-02-11 17:00:00,
2013-02-11 12:05:00,39.2,34.5,29.80,South,188,5.0,8.0,83,0.00,,,0.13,Wunderground v.1.15,2013-02-11 17:05:00,
2013-02-11 12:10:00,39.4,34.7,29.80,SW,236,5.0,8.0,83,0.00,,,0.13,Wunderground v.1.15,2013-02-11 17:10:00,
2013-02-11 12:15:00,39.5,34.8,29.79,SSW,205,6.0,8.0,83,0.00,,,0.13,Wunderground v.1.15,2013-02-11 17:15:00,
2013-02-11 12:20:00,39.8,35.1,29.79,SE,142,6.0,6.0,83,0.00,,,0.13,Wunderground v.1.15,2013-02-11 17:20:00,
2013-02-11 12:25:00,40.1,35.0,29.79,SW,218,5.0,8.0,82,0.00,,,0.13,Wunderground v.1.15,2013-02-11 17:25:00,
2013-02-11 12:30:00,40.3,35.2,29.79,West,264,5.0,5.0,82,0.00,,,0.13,Wunderground v.1.15,2013-02-11 17:30:00,
2013-02-11 12:35:00,40.4,35.3,29.79,WSW,240,5.0,8.0,82,0.00,,,0.13,Wunderground v.1.15,2013-02-11 17:35:00,
2013-02-11 12:40:00,40.6,35.2,29.78,SSW,198,5.0,5.0,81,0.00,,,0.13,Wunderground v.1.15,2013-02-11 17:40:00,
2013-02-11 12:45:00,40.7,35.3,29.78,SW,229,4.0,7.0,81,0.00,,,0.13,Wunderground v.1.15,2013-02-11 17:45:00,
2013-02-11 12:55:00,40.9,35.5,29.77,SSW,212,4.0,6.0,81,0.00,,,0.13,Wunderground v.1.15,2013-02-11 17:55:00,
2013-02-11 13:00:00,41.1,35.7,29.77,SW,225,3.0,3.0,81,0.00,,,0.13,Wunderground v.1.15,2013-02-11 18:00:00,
2013-02-11 13:05:00,41.2,35.5,29.76,SSE,167,3.0,8.0,80,0.00,,,0.13,Wunderground v.1.15,2013-02-11 18:05:00,
2013-02-11 13:10:00,41.5,35.8,29.76,SW,226,3.0,8.0,80,0.00,,,0.13,Wunderground v.1.15,2013-02-11 18:10:00,
2013-02-11 13:15:00,41.7,36.0,29.75,SSE,153,4.0,8.0,80,0.00,,,0.13,Wunderground v.1.15,2013-02-11 18:15:00,
2013-02-11 13:20:00,41.9,36.2,29.75,SSW,212,4.0,4.0,80,0.00,,,0.13,Wunderground v.1.15,2013-02-11 18:20:00,
2013-02-11 13:25:00,42.2,36.2,29.74,South,171,3.0,8.0,79,0.00,,,0.13,Wunderground v.1.15,2013-02-11 18:25:00,
2013-02-11 13:30:00,42.5,36.4,29.74,South,188,3.0,3.0,79,0.00,,,0.13,Wunderground v.1.15,2013-02-11 18:30:00,
2013-02-11 13:35:00,42.7,36.3,29.74,WSW,238,3.0,8.0,78,0.00,,,0.13,Wunderground v.1.15,2013-02-11 18:35:00,
2013-02-11 13:40:00,42.8,36.4,29.73,South,190,3.0,3.0,78,0.00,,,0.13,Wunderground v.1.15,2013-02-11 18:40:00,
2013-02-11 13:45:00,42.9,36.5,29.73,SSE,152,2.0,4.0,78,0.00,,,0.13,Wunderground v.1.15,2013-02-11 18:45:00,
2013-02-11 13:50:00,42.9,36.5,29.73,SSW,207,3.0,8.0,78,0.00,,,0.13,Wunderground v.1.15,2013-02-11 18:50:00,
2013-02-11 13:55:00,42.6,36.2,29.73,SSE,155,4.0,8.0,78,0.00,,,0.13,Wunderground v.1.15,2013-02-11 18:55:00,
2013-02-11 14:00:00,42.4,36.3,29.73,SSE,167,4.0,8.0,79,0.00,,,0.13,Wunderground v.1.15,2013-02-11 19:00:00,
2013-02-11 14:05:00,42.3,36.3,29.73,SSW,203,4.0,8.0,79,0.00,,,0.13,Wunderground v.1.15,2013-02-11 19:05:00,
2013-02-11 14:10:00,42.3,36.3,29.73,ESE,103,4.0,4.0,79,0.00,,,0.13,Wunderground v.1.15,2013-02-11 19:10:00,
2013-02-11 14:15:00,42.2,36.2,29.72,SSE,156,4.0,8.0,79,0.00,,,0.13,Wunderground v.1.15,2013-02-11 19:15:00,
2013-02-11 14:20:00,42.3,36.3,29.71,South,191,3.0,3.0,79,0.00,,,0.13,Wunderground v.1.15,2013-02-11 19:20:00,
2013-02-11 14:25:00,42.4,36.3,29.71,SSE,150,4.0,4.0,79,0.00,,,0.13,Wunderground v.1.15,2013-02-11 19:25:00,
2013-02-11 14:30:00,42.4,36.3,29.70,South,176,4.0,8.0,79,0.00,,,0.13,Wunderground v.1.15,2013-02-11 19:30:00,
2013-02-11 14:35:00,42.6,36.5,29.70,SW,215,5.0,8.0,79,0.00,,,0.13,Wunderground v.1.15,2013-02-11 19:35:00,
2013-02-11 14:40:00,42.6,36.5,29.70,SE,131,5.0,8.0,79,0.00,,,0.13,Wunderground v.1.15,2013-02-11 19:40:00,
2013-02-11 14:45:00,42.7,36.6,29.70,South,187,4.0,8.0,79,0.00,,,0.13,Wunderground v.1.15,2013-02-11 19:45:00,
2013-02-11 14:50:00,42.7,36.6,29.69,South,176,4.0,4.0,79,0.00,,,0.13,Wunderground v.1.15,2013-02-11 19:50:00,
2013-02-11 15:00:00,42.7,36.6,29.69,SSW,203,3.0,3.0,79,0.00,,,0.13,Wunderground v.1.15,2013-02-11 20:00:00,
2013-02-11 15:05:00,42.8,36.7,29.69,SSW,194,2.0,8.0,79,0.00,,,0.13,Wunderground v.1.15,2013-02-11 20:05:00,
2013-02-11 15:10:00,42.8,36.7,29.69,WSW,243,2.0,8.0,79,0.00,,,0.13,Wunderground v.1.15,2013-02-11 20:10:00,
2013-02-11 15:15:00,42.6,36.5,29.69,SSW,203,2.0,8.0,79,0.00,,,0.13,Wunderground v.1.15,2013-02-11 20:15:00,
2013-02-11 15:20:00,42.6,36.5,29.69,WSW,239,3.0,8.0,79,0.00,,,0.13,Wunderground v.1.15,2013-02-11 20:20:00,
2013-02-11 15:25:00,42.5,36.8,29.68,WSW,245,3.0,8.0,80,0.00,,,0.13,Wunderground v.1.15,2013-02-11 20:25:00,
2013-02-11 15:30:00,42.4,36.7,29.68,SSE,161,4.0,4.0,80,0.00,,,0.13,Wunderground v.1.15,2013-02-11 20:30:00,
2013-02-11 15:35:00,42.5,36.8,29.68,South,172,2.0,8.0,80,0.00,,,0.13,Wunderground v.1.15,2013-02-11 20:35:00,
2013-02-11 15:40:00,42.5,36.8,29.68,SSE,158,1.0,8.0,80,0.00,,,0.13,Wunderground v.1.15,2013-02-11 20:40:00,
2013-02-11 15:45:00,42.5,36.8,29.68,SSE,159,2.0,8.0,80,0.00,,,0.13,Wunderground v.1.15,2013-02-11 20:45:00,
2013-02-11 15:50:00,42.4,36.7,29.68,SW,219,2.0,8.0,80,0.00,,,0.13,Wunderground v.1.15,2013-02-11 20:50:00,
2013-02-11 15:55:00,42.3,36.9,29.69,SSW,203,3.0,8.0,81,0.00,,,0.13,Wunderground v.1.15,2013-02-11 20:55:00,
2013-02-11 16:00:00,42.4,37.0,29.69,South,179,3.0,8.0,81,0.00,,,0.13,Wunderground v.1.15,2013-02-11 21:00:00,
2013-02-11 16:05:00,42.3,36.9,29.70,SSW,210,2.0,8.0,81,0.00,,,0.13,Wunderground v.1.15,2013-02-11 21:05:00,
2013-02-11 16:10:00,42.2,36.8,29.70,WSW,239,3.0,3.0,81,0.00,,,0.13,Wunderground v.1.15,2013-02-11 21:10:00,
2013-02-11 16:15:00,42.1,36.7,29.70,SW,236,2.0,8.0,81,0.00,,,0.13,Wunderground v.1.15,2013-02-11 21:15:00,
2013-02-11 16:20:00,42.1,36.7,29.71,West,278,2.0,8.0,81,0.00,,,0.13,Wunderground v.1.15,2013-02-11 21:20:00,
2013-02-11 16:25:00,41.5,36.4,29.72,West,264,2.0,8.0,82,0.00,,,0.13,Wunderground v.1.15,2013-02-11 21:25:00,
2013-02-11 16:35:00,41.2,36.7,29.72,NNW,335,3.0,8.0,84,0.00,,,0.13,Wunderground v.1.15,2013-02-11 21:35:00,
2013-02-11 16:40:00,40.8,36.6,29.72,NNW,345,4.0,8.0,85,0.00,,,0.13,Wunderground v.1.15,2013-02-11 21:40:00,
2013-02-11 16:45:00,40.2,36.1,29.73,NNW,330,4.0,8.0,85,0.00,,,0.13,Wunderground v.1.15,2013-02-11 21:45:00,
2013-02-11 16:50:00,39.7,35.9,29.74,NNW,341,3.0,3.0,86,0.00,,,0.13,Wunderground v.1.15,2013-02-11 21:50:00,
2013-02-11 16:55:00,39.3,35.5,29.74,WNW,291,3.0,8.0,86,0.00,,,0.13,Wunderground v.1.15,2013-02-11 21:55:00,
2013-02-11 17:00:00,39.1,35.0,29.74,WNW,300,3.0,8.0,85,0.00,,,0.13,Wunderground v.1.15,2013-02-11 22:00:00,
2013-02-11 17:05:00,38.9,34.8,29.74,NNW,343,3.0,8.0,85,0.00,,,0.13,Wunderground v.1.15,2013-02-11 22:05:00,
2013-02-11 17:10:00,38.7,34.6,29.74,NNW,334,3.0,8.0,85,0.00,,,0.13,Wunderground v.1.15,2013-02-11 22:10:00,
2013-02-11 17:15:00,38.6,34.5,29.74,North,351,4.0,8.0,85,0.00,,,0.13,Wunderground v.1.15,2013-02-11 22:15:00,
2013-02-11 17:20:00,38.4,34.3,29.74,NNW,332,4.0,8.0,85,0.00,,,0.13,Wunderground v.1.15,2013-02-11 22:20:00,
2013-02-11 17:25:00,38.3,34.2,29.76,NW,318,4.0,8.0,85,0.00,,,0.13,Wunderground v.1.15,2013-02-11 22:25:00,
2013-02-11 17:35:00,37.9,34.1,29.76,NNW,344,2.0,8.0,86,0.00,,,0.13,Wunderground v.1.15,2013-02-11 22:35:00,
2013-02-11 17:40:00,37.5,33.7,29.76,NNW,342,2.0,8.0,86,0.00,,,0.14,Wunderground v.1.15,2013-02-11 22:40:00,
2013-02-11 17:45:00,37.2,33.7,29.76,ENE,58,2.0,8.0,87,0.00,,,0.14,Wunderground v.1.15,2013-02-11 22:45:00,
2013-02-11 17:50:00,37.0,33.8,29.77,NNW,340,3.0,8.0,88,0.00,,,0.14,Wunderground v.1.15,2013-02-11 22:50:00,
2013-02-11 17:55:00,36.7,33.5,29.77,NNW,334,3.0,8.0,88,0.00,,,0.14,Wunderground v.1.15,2013-02-11 22:55:00,
2013-02-11 18:00:00,36.4,33.2,29.78,NNE,18,2.0,8.0,88,0.00,,,0.14,Wunderground v.1.15,2013-02-11 23:00:00,
2013-02-11 18:05:00,36.2,33.0,29.79,North,351,2.0,8.0,88,0.00,,,0.15,Wunderground v.1.15,2013-02-11 23:05:00,
2013-02-11 18:10:00,36.0,33.1,29.78,ENE,60,2.0,2.0,89,0.00,,,0.15,Wunderground v.1.15,2013-02-11 23:10:00,
2013-02-11 18:15:00,35.6,32.7,29.78,ENE,61,3.0,4.0,89,0.00,,,0.15,Wunderground v.1.15,2013-02-11 23:15:00,
2013-02-11 18:20:00,35.2,32.3,29.79,ENE,75,3.0,3.0,89,0.04,,,0.16,Wunderground v.1.15,2013-02-11 23:20:00,
2013-02-11 18:25:00,34.9,32.3,29.79,ESE,108,2.0,8.0,90,0.04,,,0.16,Wunderground v.1.15,2013-02-11 23:25:00,
2013-02-11 18:30:00,34.9,32.3,29.79,ESE,107,2.0,2.0,90,0.04,,,0.16,Wunderground v.1.15,2013-02-11 23:30:00,
2013-02-11 18:35:00,34.9,32.3,29.80,SSW,204,1.0,8.0,90,0.00,,,0.16,Wunderground v.1.15,2013-02-11 23:35:00,
2013-02-11 18:40:00,34.8,32.2,29.79,ESE,118,1.0,1.0,90,0.00,,,0.16,Wunderground v.1.15,2013-02-11 23:40:00,
2013-02-11 18:45:00,34.7,32.3,29.79,East,101,1.0,8.0,91,0.00,,,0.16,Wunderground v.1.15,2013-02-11 23:45:00,
2013-02-11 18:50:00,34.5,32.1,29.78,SE,137,1.0,1.0,91,0.00,,,0.16,Wunderground v.1.15,2013-02-11 23:50:00,
2013-02-11 18:55:00,34.4,32.0,29.79,SE,145,0.0,8.0,91,0.00,,,0.16,Wunderground v.1.15,2013-02-11 23:55:00,
2013-02-11 19:00:00,34.4,32.0,29.79,SSE,162,0.0,8.0,91,0.00,,,0.17,Wunderground v.1.15,2013-02-12 00:00:00,
2013-02-11 19:10:00,34.2,31.8,29.79,SW,231,0.0,8.0,91,0.00,,,0.17,Wunderground v.1.15,2013-02-12 00:10:00,
2013-02-11 19:15:00,34.1,32.0,29.79,WSW,240,1.0,8.0,92,0.00,,,0.17,Wunderground v.1.15,2013-02-12 00:15:00,
2013-02-11 19:20:00,34.0,31.9,29.79,ESE,123,1.0,1.0,92,0.00,,,0.17,Wunderground v.1.15,2013-02-12 00:20:00,
2013-02-11 19:25:00,34.0,31.9,29.79,WNW,298,0.0,8.0,92,0.00,,,0.17,Wunderground v.1.15,2013-02-12 00:25:00,
2013-02-11 19:30:00,34.1,31.7,29.79,NE,51,0.0,8.0,91,0.00,,,0.17,Wunderground v.1.15,2013-02-12 00:30:00,
2013-02-11 19:35:00,34.2,31.6,29.79,SW,218,1.0,8.0,90,0.00,,,0.17,Wunderground v.1.15,2013-02-12 00:35:00,
2013-02-11 19:40:00,34.5,31.3,29.79,SSW,195,1.0,1.0,88,0.00,,,0.17,Wunderground v.1.15,2013-02-12 00:40:00,
2013-02-11 19:45:00,34.6,31.4,29.79,SW,232,1.0,8.0,88,0.00,,,0.17,Wunderground v.1.15,2013-02-12 00:45:00,
2013-02-11 19:50:00,34.6,31.1,29.80,NW,309,0.0,8.0,87,0.00,,,0.17,Wunderground v.1.15,2013-02-12 00:50:00,
2013-02-11 19:55:00,35.0,30.7,29.79,West,264,1.0,8.0,84,0.00,,,0.17,Wunderground v.1.15,2013-02-12 00:55:00,
2013-02-11 20:00:00,35.3,30.9,29.80,West,277,2.0,2.0,84,0.00,,,0.17,Wunderground v.1.15,2013-02-12 01:00:00,
2013-02-11 20:05:00,35.2,30.6,29.80,SW,236,1.0,4.0,83,0.00,,,0.17,Wunderground v.1.15,2013-02-12 01:05:00,
2013-02-11 20:10:00,35.3,30.7,29.80,West,271,1.0,8.0,83,0.00,,,0.17,Wunderground v.1.15,2013-02-12 01:10:00,
2013-02-11 20:15:00,35.4,30.5,29.80,NW,307,1.0,8.0,82,0.00,,,0.17,Wunderground v.1.15,2013-02-12 01:15:00,
2013-02-11 20:20:00,35.3,30.7,29.81,WSW,245,1.0,8.0,83,0.00,,,0.17,Wunderground v.1.15,2013-02-12 01:20:00,
2013-02-11 20:25:00,35.3,30.7,29.81,West,279,0.0,8.0,83,0.00,,,0.17,Wunderground v.1.15,2013-02-12 01:25:00,
2013-02-11 20:30:00,35.3,30.1,29.81,West,277,1.0,8.0,81,0.00,,,0.17,Wunderground v.1.15,2013-02-12 01:30:00,
2013-02-11 20:35:00,35.6,29.7,29.81,NW,317,2.0,8.0,79,0.00,,,0.17,Wunderground v.1.15,2013-02-12 01:35:00,
2013-02-11 20:40:00,35.6,29.7,29.80,WNW,285,3.0,8.0,79,0.00,,,0.17,Wunderground v.1.15,2013-02-12 01:40:00,
2013-02-11 20:45:00,35.7,29.5,29.80,NNW,328,2.0,8.0,78,0.00,,,0.17,Wunderground v.1.15,2013-02-12 01:45:00,
2013-02-11 20:50:00,35.6,29.1,29.80,NNW,328,2.0,2.0,77,0.00,,,0.17,Wunderground v.1.15,2013-02-12 01:50:00,
2013-02-11 20:55:00,35.6,28.8,29.80,NNW,327,1.0,8.0,76,0.00,,,0.17,Wunderground v.1.15,2013-02-12 01:55:00,
2013-02-11 21:00:00,35.7,28.9,29.80,West,260,2.0,8.0,76,0.00,,,0.17,Wunderground v.1.15,2013-02-12 02:00:00,
2013-02-11 21:05:00,35.9,28.7,29.79,West,277,2.0,8.0,75,0.00,,,0.17,Wunderground v.1.15,2013-02-12 02:05:00,
2013-02-11 21:10:00,35.9,28.4,29.79,WSW,249,3.0,8.0,74,0.00,,,0.17,Wunderground v.1.15,2013-02-12 02:10:00,
2013-02-11 21:15:00,36.0,28.5,29.79,WNW,295,3.0,8.0,74,0.00,,,0.17,Wunderground v.1.15,2013-02-12 02:15:00,
2013-02-11 21:20:00,35.9,28.4,29.79,WNW,288,3.0,8.0,74,0.00,,,0.17,Wunderground v.1.15,2013-02-12 02:20:00,
2013-02-11 21:25:00,36.0,28.2,29.79,WNW,283,2.0,8.0,73,0.00,,,0.17,Wunderground v.1.15,2013-02-12 02:25:00,
2013-02-11 21:30:00,36.1,27.9,29.79,WSW,238,3.0,3.0,72,0.00,,,0.17,Wunderground v.1.15,2013-02-12 02:30:00,
2013-02-11 21:35:00,36.1,27.9,29.79,West,266,2.0,8.0,72,0.00,,,0.17,Wunderground v.1.15,2013-02-12 02:35:00,
2013-02-11 21:40:00,36.3,27.8,29.79,WNW,290,2.0,8.0,71,0.00,,,0.17,Wunderground v.1.15,2013-02-12 02:40:00,
2013-02-11 21:45:00,36.3,27.8,29.79,West,278,2.0,8.0,71,0.00,,,0.17,Wunderground v.1.15,2013-02-12 02:45:00,
2013-02-11 21:50:00,36.2,27.7,29.79,West,276,2.0,2.0,71,0.00,,,0.17,Wunderground v.1.15,2013-02-12 02:50:00,
2013-02-11 21:55:00,36.2,27.7,29.79,NW,315,2.0,8.0,71,0.00,,,0.17,Wunderground v.1.15,2013-02-12 02:55:00,
2013-02-11 22:00:00,36.2,28.0,29.79,NW,320,2.0,8.0,72,0.00,,,0.17,Wunderground v.1.15,2013-02-12 03:00:00,
2013-02-11 22:05:00,36.0,27.8,29.79,WNW,285,2.0,8.0,72,0.00,,,0.17,Wunderground v.1.15,2013-02-12 03:05:00,
2013-02-11 22:10:00,36.0,27.8,29.79,WSW,257,1.0,8.0,72,0.00,,,0.17,Wunderground v.1.15,2013-02-12 03:10:00,
2013-02-11 22:15:00,35.6,27.8,29.79,West,266,2.0,8.0,73,0.00,,,0.17,Wunderground v.1.15,2013-02-12 03:15:00,
2013-02-11 22:20:00,35.8,28.0,29.79,WSW,255,2.0,8.0,73,0.00,,,0.17,Wunderground v.1.15,2013-02-12 03:20:00,
2013-02-11 22:25:00,35.7,27.9,29.79,WNW,288,2.0,8.0,73,0.00,,,0.17,Wunderground v.1.15,2013-02-12 03:25:00,
2013-02-11 22:30:00,36.1,27.3,29.79,WSW,256,4.0,8.0,70,0.00,,,0.17,Wunderground v.1.15,2013-02-12 03:30:00,
2013-02-11 22:35:00,36.1,27.6,29.79,West,259,4.0,8.0,71,0.00,,,0.17,Wunderground v.1.15,2013-02-12 03:35:00,
2013-02-11 22:40:00,36.1,27.3,29.78,WNW,290,3.0,8.0,70,0.00,,,0.17,Wunderground v.1.15,2013-02-12 03:40:00,
2013-02-11 22:45:00,36.2,27.4,29.78,West,281,3.0,8.0,70,0.00,,,0.17,Wunderground v.1.15,2013-02-12 03:45:00,
2013-02-11 22:50:00,36.2,27.4,29.78,WNW,301,4.0,8.0,70,0.00,,,0.17,Wunderground v.1.15,2013-02-12 03:50:00,
2013-02-11 22:55:00,36.3,27.4,29.78,WNW,290,4.0,8.0,70,0.00,,,0.17,Wunderground v.1.15,2013-02-12 03:55:00,
2013-02-11 23:00:00,36.3,27.4,29.78,West,271,3.0,3.0,70,0.00,,,0.17,Wunderground v.1.15,2013-02-12 04:00:00,
2013-02-11 23:05:00,36.1,27.3,29.78,WNW,293,2.0,8.0,70,0.00,,,0.17,Wunderground v.1.15,2013-02-12 04:05:00,
2013-02-11 23:10:00,36.1,27.3,29.78,WNW,300,1.0,1.0,70,0.00,,,0.17,Wunderground v.1.15,2013-02-12 04:10:00,
2013-02-11 23:15:00,36.0,27.5,29.78,WNW,287,1.0,8.0,71,0.00,,,0.17,Wunderground v.1.15,2013-02-12 04:15:00,
2013-02-11 23:25:00,35.9,27.4,29.78,NW,321,2.0,8.0,71,0.00,,,0.17,Wunderground v.1.15,2013-02-12 04:25:00,
2013-02-11 23:30:00,35.9,27.4,29.78,West,278,3.0,8.0,71,0.00,,,0.17,Wunderground v.1.15,2013-02-12 04:30:00,
2013-02-11 23:35:00,35.9,27.4,29.78,WNW,290,2.0,8.0,71,0.00,,,0.17,Wunderground v.1.15,2013-02-12 04:35:00,
2013-02-11 23:40:00,35.8,27.3,29.78,West,278,1.0,8.0,71,0.00,,,0.17,Wunderground v.1.15,2013-02-12 04:40:00,
2013-02-11 23:45:00,35.8,27.7,29.78,WNW,301,1.0,8.0,72,0.00,,,0.17,Wunderground v.1.15,2013-02-12 04:45:00,
2013-02-11 23:50:00,35.9,27.4,29.78,WNW,288,2.0,8.0,71,0.00,,,0.17,Wunderground v.1.15,2013-02-12 04:50:00,
2013-02-11 23:55:00,35.9,27.4,29.79,North,349,2.0,8.0,71,0.00,,,0.17,Wunderground v.1.15,2013-02-12 04:55:00,